Hourly Data Report for April 18, 2006

TORONTO CITY
ONTARIO

43°40'00.000" N
79°24'00.000" W
112.50 m
6158355
71508
XTO

Download Data

Hourly Data (April 2006)
Hourly Data Report for April 18, 2006
TIME
LST
Temp Definition
°C
Dew Point Definition
°C
Rel Hum Definition
%
Precip. Amount Definition
mm

Wind Dir Definition
10's deg

Wind Spd Definition
km/h
Visibility Definition
km
Stn Press Definition
kPa
Hmdx Definition


Wind Chill Definition


Weather Definition


00:00 10.3 2.7 59   LegendMM LegendMM   100.28     LegendNANA
01:00 10.4 2.5 58   LegendMM LegendMM   100.30     LegendNANA
02:00 9.9 2.3 59   LegendMM LegendMM   100.30     LegendNANA
03:00 9.9 2.0 58   LegendMM LegendMM   100.34     LegendNANA
04:00 9.6 1.9 59   LegendMM LegendMM   100.38     LegendNANA
05:00 9.3 2.0 60   LegendMM LegendMM   100.45     LegendNANA
06:00 9.2 2.1 61   LegendMM LegendMM   100.52     LegendNANA
07:00 10.0 2.4 59   LegendMM LegendMM   100.57     LegendNANA
08:00 11.6 2.8 55   LegendMM LegendMM   100.58     LegendNANA
09:00 12.0 2.9 54   LegendMM LegendMM   100.58     LegendNANA
10:00 12.8 3.8 54   LegendMM LegendMM   100.54     LegendNANA
11:00 12.9 4.0 55   LegendMM LegendMM   100.55     LegendNANA
12:00 13.2 4.4 55   LegendMM LegendMM   100.52     LegendNANA
13:00 13.7 4.7 54   LegendMM LegendMM   100.49     LegendNANA
14:00 13.2 4.2 54   LegendMM LegendMM   100.46     LegendNANA
15:00 14.1 4.7 53   LegendMM LegendMM   100.39     LegendNANA
16:00 14.3 4.5 52   LegendMM LegendMM   100.34     LegendNANA
17:00 14.2 5.0 54   LegendMM LegendMM   100.31     LegendNANA
18:00 13.6 4.3 53   LegendMM LegendMM   100.29     LegendNANA
19:00 12.9 4.3 56   LegendMM LegendMM   100.27     LegendNANA
20:00 12.5 4.5 58   LegendMM LegendMM   100.29     LegendNANA
21:00 14.4 4.8 52   LegendMM LegendMM   100.30     LegendNANA
22:00 14.0 4.0 51   LegendMM LegendMM   100.26     LegendNANA
23:00 13.0 3.9 54   LegendMM LegendMM   100.24     LegendNANA

Notes on Data Quality.

Legend

  • E = Estimated
  • M = Missing
  • NA = Not Available*
  • [empty] = Indicates an unobserved value
Date modified: